Probability
2 1 0 1 0 0 0 0 0 0 0 0 0 0 0 0 0 0 0 0 0 0 1 2 2 1 0 0 0 0 0 0 0 0 0 0 0 0 0 0 0 0 0 1 3 3 2 2 1
2 1 1 2 1 0 0 0 0 0 0 0 0 0 0 0 0 0 0 0 0 0 1 2 2 2 1 0 0 0 0 0 0 0 0 0 0 0 0 0 0 0 1 2 3 2 1 1 0
1 1 2 4 2 0 0 0 1 1 0 0 0 0 0 0 0 0 0 0 0 0 1 2 3 3 2 1 0 0 0 0 0 0 0 0 0 0 0 0 0 0 1 2 2 1 0 0 0
1 2 4 4 2 0 0 1 3 2 1 1 0 0 0 0 0 0 0 0 0 0 0 1 3 4 3 1 0 0 0 0 0 0 0 0 0 0 0 0 0 0 0 1 1 0 0 0 0
1 2 3 2 1 0 1 2 3 3 3 2 1 0 0 0 0 0 0 0 0 0 0 1 3 3 2 1 0 0 0 0 0 0 0 0 0 0 0 0 0 0 0 0 0 0 0 0 0
1 2 2 1 0 0 1 2 3 3 4 3 1 0 0 0 0 0 0 0 0 0 0 1 2 2 1 1 0 0 0 0 0 0 0 0 0 0 1 0 0 0 0 0 0 0 0 0 0
1 1 2 1 0 0 0 1 2 4 4 4 2 1 0 0 0 0 0 0 0 0 0 0 1 1 1 1 0 0 0 0 0 0 0 0 0 0 0 0 0 0 0 0 0 0 0 0 0
0 1 1 0 0 0 0 0 1 3 4 3 2 1 0 0 0 0 0 0 0 0 0 0 0 0 0 0 0 0 0 0 0 0 0 0 0 0 0 0 0 0 0 0 0 0 0 0 0
0 0 1 0 0 0 0 0 0 1 2 1 1 1 1 1 2 1 1 0 0 0 0 0 0 0 0 0 0 0 0 0 0 0 0 0 0 0 0 0 0 0 0 0 0 0 0 0 0
0 0 0 0 0 0 0 0 0 0 0 0 0 1 2 3 3 2 1 0 0 0 0 0 0 0 0 0 0 0 0 0 0 0 0 0 0 0 0 0 0 0 0 0 0 0 0 0 0
0 0 0 0 0 0 0 1 1 1 0 0 1 2 4 4 3 3 2 0 0 0 0 0 0 0 0 0 0 0 0 0 0 0 0 0 0 0 0 0 0 0 0 0 0 0 0 0 0
0 0 0 0 0 0 0 1 1 1 0 0 1 2 3 3 3 3 2 1 0 0 0 0 0 0 0 0 0 0 0 0 0 0 0 0 0 0 0 0 0 0 0 0 0 0 0 0 0
0 0 0 0 0 0 0 0 0 0 0 1 1 1 3 4 4 4 3 2 1 0 0 0 0 0 0 0 0 0 0 0 0 0 0 0 0 0 0 0 0 0 0 0 0 0 0 0 0
0 0 0 0 0 0 0 0 0 0 0 1 1 1 3 5 6 5 4 3 1 0 0 1 1 0 0 0 0 0 0 0 0 0 0 0 0 0 0 0 0 0 0 0 0 0 0 0 0
0 0 0 0 0 0 0 0 0 0 0 1 1 1 2 5 7 6 5 3 2 0 0 2 2 1 0 0 0 0 0 0 0 0 0 0 0 0 0 0 0 0 0 0 0 0 0 0 0
0 0 0 0 0 0 0 0 0 0 0 0 1 2 3 4 6 6 5 4 1 0 0 1 2 1 0 0 0 0 0 0 0 0 0 0 0 0 0 0 0 0 0 0 0 0 0 0 0
0 0 0 0 0 0 0 0 0 0 0 1 2 3 3 3 3 4 4 3 1 0 0 0 1 0 0 0 0 0 0 0 0 0 0 0 0 0 0 0 0 0 0 0 0 0 0 0 0
0 0 0 0 0 0 0 0 0 0 1 2 3 3 3 3 3 3 3 2 1 0 0 0 0 0 0 0 0 0 0 0 0 0 0 0 0 0 0 0 0 0 0 0 0 0 0 0 0
0 0 0 0 0 0 0 0 0 0 1 2 3 3 4 4 4 3 3 2 0 0 0 0 0 0 0 0 1 1 0 0 0 0 0 0 0 0 0 0 0 0 0 0 0 0 0 0 0
0 0 0 0 0 0 0 0 0 0 1 2 3 3 4 5 4 3 3 3 2 1 0 0 1 1 1 1 2 2 1 0 0 0 0 0 0 0 0 0 0 0 0 0 0 0 0 0 0
0 0 0 0 0 0 0 0 0 0 0 1 1 2 3 4 3 3 4 6 7 5 2 1 3 3 3 3 3 3 2 1 1 0 0 0 0 0 0 0 0 0 0 0 0 0 0 0 0
0 0 0 0 0 0 0 0 0 0 0 0 0 1 2 2 2 2 5 8 10 8 4 3 5 6 5 5 5 5 4 3 2 1 1 0 0 0 0 0 0 0 0 0 0 0 0 0 0
0 0 0 0 0 0 0 0 0 0 0 0 0 0 1 2 1 2 5 8 9 8 6 5 6 7 8 8 7 6 5 4 3 3 2 1 0 0 0 0 0 0 0 0 0 0 0 0 1
0 0 0 0 0 0 0 0 0 0 0 0 0 1 1 2 2 1 3 6 8 9 8 6 6 8 9 10 9 7 7 6 5 5 4 1 0 0 0 0 0 0 0 0 0 0 0 1 2
0 0 0 0 0 0 0 0 0 0 0 0 0 2 3 4 3 3 3 5 8 10 9 8 7 8 10 10 9 8 8 8 7 5 4 3 1 0 0 0 0 0 1 1 1 1 0 1 2
0 0 0 0 0 0 0 0 0 0 0 0 0 2 5 5 5 5 5 7 9 10 10 9 10 10 10 9 10 10 9 9 7 5 4 3 2 1 0 0 1 1 1 2 2 1 1 2 3
0 0 0 0 0 0 0 0 0 0 0 0 0 1 3 5 7 7 7 8 10 10 10 11 12 12 10 10 11 11 10 9 8 6 5 4 4 3 1 1 2 2 1 2 2 2 3 4 4
0 0 0 0 0 0 0 0 0 0 0 0 0 0 1 4 9 10 10 11 12 11 9 9 11 12 11 10 11 11 12 11 10 9 7 6 6 5 4 4 3 3 2 2 4 5 6 7 7
0 0 0 0 0 0 0 0 0 0 0 0 0 0 1 5 9 12 14 16 16 12 8 6 7 9 10 11 12 13 14 14 13 11 9 9 9 8 8 7 6 5 4 4 6 7 9 10 11
0 0 0 0 0 0 0 0 0 0 0 0 0 0 1 5 9 13 17 20 18 13 8 5 4 5 8 11 14 15 17 17 14 12 12 12 12 11 10 8 7 7 5 5 6 8 10 12 12
Wind_Speed
7 5 2 1 3 4 3 3 2 3 3 3 5 6 6 4 2 3 1 3 5 4 4 7 9 11 11 12 12 12 13 13 13 13 14 13 13 13 13 13 13 13 12 12 12 12 12 12 13
5 4 1 1 4 3 3 2 3 3 4 4 5 6 6 5 3 5 3 4 6 5 4 6 10 11 11 11 11 12 12 13 13 13 13 13 12 12 12 12 12 12 11 11 11 11 12 12 12
6 3 1 3 3 2 0 1 3 5 4 3 4 5 5 3 3 3 3 7 7 5 4 6 11 11 11 11 11 11 12 12 12 12 12 12 11 11 11 11 11 11 11 10 10 10 10 11 11
2 0 2 4 2 1 1 2 4 5 4 5 4 5 4 3 2 4 7 8 7 5 4 5 10 11 11 11 11 11 11 12 12 11 11 11 11 10 10 10 10 10 10 9 9 9 9 9 9
1 2 4 3 2 1 1 3 4 4 3 4 5 5 4 4 7 9 8 8 7 5 4 5 9 10 10 10 10 10 11 11 11 10 10 10 10 9 9 9 9 9 9 9 8 8 8 8 8
2 3 4 2 2 2 2 3 4 5 4 4 5 5 3 3 8 8 8 6 5 5 4 4 8 9 9 9 10 9 9 10 10 10 9 9 9 8 8 8 8 8 8 8 8 7 7 6 6
2 3 2 0 0 0 2 2 3 4 4 4 4 5 3 4 6 7 7 6 5 5 4 3 3 5 8 9 9 9 8 8 8 9 8 8 8 7 7 7 7 7 6 6 7 6 5 5 4
2 3 1 1 2 1 2 3 3 4 4 5 4 6 5 6 8 8 7 6 5 4 3 3 3 3 3 4 7 7 7 7 7 8 8 7 7 6 6 5 6 6 5 5 5 5 5 4 3
2 4 1 3 4 2 3 4 2 3 6 3 3 4 7 13 11 9 6 4 4 4 2 2 2 2 2 2 4 5 6 6 5 5 6 5 2 2 2 4 5 5 4 3 3 3 3 2 2
3 2 4 3 4 4 4 4 5 4 4 3 5 7 13 13 11 10 8 7 5 4 3 2 2 2 2 2 2 1 1 2 2 2 2 2 2 1 2 2 3 3 3 2 1 1 1 1 1
3 4 3 2 2 4 5 4 4 7 3 6 10 14 15 13 11 10 8 7 6 5 4 3 2 2 2 1 1 1 1 1 1 2 2 2 2 1 1 1 1 1 1 2 2 2 1 1 0
2 3 2 1 3 4 5 5 4 4 5 7 13 16 16 14 12 10 9 7 5 5 4 3 3 2 2 1 1 1 1 1 1 1 2 2 1 1 1 1 1 1 1 1 1 1 1 0 0
1 2 1 2 3 4 5 4 3 2 4 11 14 14 15 13 10 8 7 6 5 5 4 4 4 3 2 2 1 1 1 1 2 1 2 2 2 1 1 1 1 0 0 0 0 0 0 1 0
1 1 1 2 3 3 5 2 2 2 9 12 14 13 12 12 11 8 7 7 6 6 5 4 4 4 3 2 2 1 1 1 2 2 2 3 2 2 1 1 0 0 0 0 0 0 0 0 0
1 3 4 3 2 2 5 1 2 6 10 12 12 11 10 9 9 9 9 8 7 6 5 5 4 4 3 3 2 1 1 2 2 2 2 3 3 2 2 1 1 1 0 0 0 1 1 1 1
4 5 3 3 1 2 4 2 2 8 11 10 10 10 9 8 9 9 8 7 6 5 5 5 5 4 4 3 2 1 2 2 1 1 2 3 3 3 2 2 1 0 1 1 0 1 1 1 1
4 2 2 4 0 2 2 3 3 7 9 9 9 9 9 8 8 8 8 8 7 7 6 5 4 5 4 3 2 2 2 2 1 1 1 2 2 3 2 2 1 1 1 1 0 1 1 1 1
2 1 2 4 2 2 2 3 3 7 9 9 8 8 8 9 9 8 8 8 7 6 6 6 5 4 4 2 1 1 1 1 1 1 2 2 2 3 3 2 1 1 1 1 1 1 1 1 1
2 2 4 5 2 3 2 3 4 6 6 7 7 8 9 9 7 6 7 7 7 6 6 6 6 5 4 2 2 2 1 1 1 1 2 3 3 3 3 2 2 2 2 1 1 1 2 1 1
1 2 3 4 1 2 1 2 2 5 7 8 9 10 9 7 5 6 7 7 8 8 7 7 7 6 5 4 3 2 2 1 1 1 1 2 3 3 3 3 2 3 2 2 2 2 1 1 1
1 3 3 2 3 4 2 4 2 2 2 3 6 7 7 9 9 8 8 8 8 9 9 8 7 7 6 5 3 2 2 1 1 0 1 1 3 3 3 3 3 3 3 3 2 3 3 2 1
4 4 3 2 2 2 1 2 5 2 2 4 6 7 8 8 8 8 8 8 9 9 8 7 7 6 6 6 5 5 4 3 3 2 1 1 2 3 3 3 4 4 3 3 3 3 2 2 1
4 1 1 2 3 2 2 1 7 2 3 7 7 7 8 9 10 10 11 10 9 8 8 7 7 6 6 6 6 5 4 3 2 1 1 1 1 2 2 3 3 3 3 3 3 2 3 2 2
1 4 5 5 5 1 2 2 6 3 6 5 6 7 8 9 9 9 9 7 7 7 7 7 7 7 7 7 7 7 6 5 3 3 2 2 1 1 2 3 3 3 3 3 3 3 3 3 3
5 6 5 6 5 4 2 2 8 6 5 6 6 7 7 8 8 7 8 8 8 8 8 8 8 8 7 7 7 7 7 6 6 5 4 3 2 2 3 3 3 3 3 3 3 3 3 3 3
2 7 7 4 4 5 2 4 7 4 4 3 3 3 5 7 7 8 8 8 8 8 8 8 8 8 7 8 7 6 6 5 4 5 4 5 4 4 3 4 4 3 3 3 3 2 3 3 3
4 2 5 7 2 1 4 6 8 3 4 3 1 0 3 5 6 6 5 5 6 7 8 8 8 7 7 8 7 6 7 6 6 5 5 4 4 4 4 4 4 4 4 4 3 3 3 3 3
4 7 5 6 4 2 5 4 5 6 6 4 2 1 2 1 2 3 4 4 6 6 6 6 7 8 7 7 7 7 7 7 6 5 6 6 5 4 4 5 4 4 4 4 4 4 3 3 3
3 4 5 4 5 6 3 7 5 5 5 3 3 2 1 2 2 3 3 4 5 5 5 6 6 6 6 6 6 6 6 6 6 6 6 6 5 5 6 6 5 5 5 5 4 4 4 5 4
4 5 6 5 3 4 4 8 4 2 3 2 2 2 1 1 2 3 3 3 4 4 4 4 5 5 6 6 6 6 6 6 7 7 7 6 6 6 6 6 6 6 5 5 5 5 5 5 5
Wind_Direction
156 147 145 145 51 46 22 358 61 71 54 44 67 75 85 70 84 125 131 127 121 116 116 120 118 118 120 120 119 118 118 119 121 120 120 119 119 119 117 117 117 118 116 114 111 111 112 112 112
150 159 181 57 69 54 354 359 57 78 125 120 75 70 71 64 67 101 117 124 118 115 109 122 122 120 120 120 119 118 118 119 120 120 120 121 121 122 120 119 120 119 116 114 111 113 116 116 115
166 195 86 58 69 131 182 58 106 103 111 87 75 61 70 77 98 116 135 126 113 109 107 124 124 123 122 120 121 121 120 120 120 120 121 122 122 121 122 123 123 122 121 121 118 117 120 120 120
167 106 51 60 42 277 176 141 128 122 77 57 89 72 63 52 110 124 125 121 114 110 108 122 125 125 124 122 122 121 122 123 122 123 123 123 122 121 121 122 123 123 124 124 122 121 123 122 122
86 78 55 38 354 342 88 116 130 102 79 68 82 82 52 28 97 113 120 121 121 115 108 117 124 125 124 125 125 125 124 124 124 125 125 124 124 123 121 126 126 127 129 128 125 125 125 124 124
51 59 66 27 342 9 86 117 109 93 92 92 90 90 61 87 108 119 118 117 116 114 107 113 126 126 125 125 126 126 124 125 126 126 126 126 127 128 127 130 131 131 131 132 132 131 128 126 126
89 73 88 174 304 37 147 126 118 116 113 121 116 99 103 124 120 120 113 108 104 100 98 95 111 122 128 129 128 130 130 129 130 132 133 133 132 131 132 135 134 134 134 136 137 137 139 135 131
128 94 70 223 185 207 152 118 112 118 110 116 114 131 158 158 128 113 105 100 103 98 94 91 85 93 108 124 135 138 138 138 138 140 141 141 139 136 135 137 138 135 134 140 149 151 153 150 147
103 74 216 211 189 192 150 126 109 90 108 108 102 132 144 136 128 120 115 107 116 124 104 102 97 97 103 122 144 143 148 146 141 140 142 131 100 103 117 142 148 148 149 149 158 164 170 162 155
103 133 233 220 187 164 147 138 142 116 108 97 91 104 126 137 143 147 149 152 158 161 155 132 131 130 127 143 112 100 110 108 95 89 95 99 96 104 115 123 150 161 161 145 123 142 141 95 74
157 201 241 261 173 142 135 129 131 131 167 181 159 147 147 151 156 161 164 167 172 170 172 162 155 146 137 115 117 91 85 95 107 111 112 111 101 83 74 60 43 44 65 49 30 36 40 67 120
181 247 215 207 143 139 145 138 135 173 202 166 155 152 155 162 168 172 174 175 168 167 182 168 159 154 157 137 130 126 125 132 138 140 138 128 123 111 99 78 58 50 59 67 37 29 13 349 226
198 288 256 142 136 137 120 128 137 171 125 130 141 151 162 169 174 177 175 172 169 179 185 176 166 168 163 142 162 141 146 163 166 152 147 146 146 146 128 107 87 76 96 108 62 32 355 326 318
240 8 4 79 104 120 121 117 107 158 136 139 151 163 171 175 176 173 175 179 183 190 190 180 177 178 166 161 163 152 150 148 146 155 162 158 155 159 155 145 151 216 198 166 181 224 357 335 316
44 41 20 33 72 121 113 76 189 156 143 152 164 170 173 178 178 184 187 186 187 189 186 183 184 178 175 179 182 164 156 143 149 164 168 164 162 162 156 154 185 228 174 113 46 42 60 27 31
42 50 8 306 60 126 120 242 201 153 153 166 173 175 179 185 187 189 185 183 183 182 182 188 192 181 185 187 183 157 148 147 158 164 166 171 169 161 149 158 198 188 113 98 87 62 73 55 40
30 33 293 296 222 128 139 236 194 157 164 177 180 181 186 191 196 193 188 184 182 185 184 184 191 180 183 184 171 155 143 155 162 161 171 174 169 162 155 167 179 138 110 105 135 86 106 93 39
264 265 270 261 247 137 178 242 190 171 178 188 187 187 192 199 206 195 188 183 179 184 184 186 191 182 169 158 133 112 115 148 151 174 187 175 171 168 161 167 166 139 116 98 92 84 79 86 66
205 219 259 259 232 157 208 243 212 178 186 195 197 197 202 206 197 186 186 179 175 182 182 186 187 183 162 148 154 157 177 184 182 194 188 180 181 174 167 170 150 144 149 159 140 112 90 64 71
213 267 281 297 333 131 115 300 213 188 199 199 198 201 204 198 185 189 187 185 184 186 186 187 189 184 178 176 165 161 153 167 179 188 176 180 181 182 180 168 166 160 156 153 150 137 130 114 92
272 212 240 267 7 36 65 343 323 252 205 205 212 209 201 198 195 192 190 193 193 191 188 192 192 187 183 170 141 115 88 74 97 151 206 194 183 187 182 175 170 170 172 182 182 165 162 163 145
277 250 217 187 91 319 69 295 297 267 239 224 223 212 204 202 197 194 190 192 197 198 188 185 188 188 181 168 165 166 172 183 196 190 195 193 182 190 190 183 180 179 178 184 195 176 169 159 176
234 342 80 101 125 42 16 121 293 343 270 249 235 218 206 200 194 196 198 198 196 194 188 184 181 186 182 178 180 181 188 191 178 164 181 210 219 213 204 193 187 186 187 194 195 173 176 179 184
149 60 50 50 68 34 278 155 283 255 238 256 235 223 209 203 199 199 199 191 190 191 185 182 183 194 189 185 186 188 190 185 178 184 196 218 224 227 214 198 193 193 190 195 196 188 188 196 195
71 77 28 3 15 263 282 176 253 260 247 235 230 221 206 199 194 194 195 192 192 191 189 186 188 197 194 190 192 195 196 190 194 197 200 206 216 223 221 212 199 199 199 196 191 189 200 199 194
147 132 152 194 222 277 331 238 257 275 295 266 224 206 190 194 194 197 197 197 194 192 189 187 191 197 194 193 197 195 192 193 202 204 203 207 213 218 212 203 205 206 199 195 186 196 207 197 205
129 147 160 134 152 298 288 290 302 314 338 351 13 125 198 198 194 197 194 191 189 190 192 191 191 195 197 197 194 195 195 198 205 203 202 210 212 214 205 203 206 209 202 193 184 204 216 207 216
120 141 98 113 141 250 292 282 266 299 309 320 327 288 252 188 171 176 181 187 189 189 188 186 188 195 199 198 202 206 204 205 206 202 205 208 212 211 202 206 208 211 210 203 196 205 213 212 225
73 83 98 110 145 159 241 268 233 240 263 271 274 271 223 165 168 170 173 176 170 172 180 188 191 192 194 198 202 207 206 204 202 206 212 212 211 206 210 211 208 209 212 209 201 211 209 215 224
153 159 142 144 208 170 183 263 280 252 263 256 286 323 39 154 170 162 158 154 156 162 178 198 198 201 204 198 199 207 206 202 207 213 215 208 212 212 211 210 210 213 213 207 206 216 216 214 219